BEL012 EBBR-EDDW

Flight info

Callsign BEL012
Flight time N/A
Altitude 35000
Route SPI Y862 KENUM N853 ONUNE/N0409F230 N853 HMM M170 BASUM T903 PIXUR PIXUR3P
Aircraft A20N/M-SDE2E3FGHIRWXY/LB1

Departure

Time 2026-04-30 20:46
Airport Brussels Airport (EBBR)

Arrival

Time N/A
Airport Bremen Airport (EDDW)
Time Latitude Longitude Altitude Speed Heading
2026-04-30 20:14 50.89985 4.48838 184 ft 0 kts 335°
2026-04-30 20:34 50.89933 4.48875 200 ft 9 kts 338°
2026-04-30 20:34 50.89883 4.48881 197 ft 9 kts 56°
2026-04-30 20:35 50.89879 4.48870 200 ft 0 kts 66°
2026-04-30 20:41 50.89886 4.48898 188 ft 9 kts 66°
2026-04-30 20:41 50.89937 4.49079 187 ft 26 kts 66°
2026-04-30 20:42 50.90025 4.49388 196 ft 20 kts 62°
2026-04-30 20:42 50.90030 4.49414 189 ft 1 kts 96°
2026-04-30 20:42 50.89874 4.49364 196 ft 29 kts 201°
2026-04-30 20:43 50.89638 4.49249 192 ft 40 kts 207°
2026-04-30 20:43 50.89420 4.49131 184 ft 31 kts 196°
2026-04-30 20:43 50.89388 4.49116 197 ft 0 kts 195°
2026-04-30 20:44 50.89379 4.49113 192 ft 4 kts 195°
2026-04-30 20:44 50.89229 4.49048 183 ft 17 kts 196°
2026-04-30 20:45 50.89138 4.49075 183 ft 16 kts 71°
2026-04-30 20:45 50.89266 4.49623 198 ft 102 kts 71°
2026-04-30 20:45 50.89614 4.51120 248 ft 178 kts 70°
2026-04-30 20:46 50.91437 4.57523 3116 ft 243 kts 69°
2026-04-30 20:46 50.92234 4.59911 4218 ft 257 kts 67°
2026-04-30 20:47 50.93843 4.65071 6839 ft 261 kts 74°
2026-04-30 20:47 50.94390 4.67843 8079 ft 265 kts 76°
2026-04-30 20:48 50.95107 4.73639 10472 ft 274 kts 88°
2026-04-30 20:48 50.95257 4.76769 11218 ft 296 kts 88°